QPF
0.03 0.04 0.05 0.07 0.05 0.05 0.06 0.06 0.06 0.06 0.08 0.05 0.04 0.03 0.03 0.03 0.06 0.05 0.03 0.03 0.03 0.05 0.07 0.07 0.06 0.07 0.07 0.04 0.04 0.07 0.07 0.07 0.06 0.06 0.04 0.04 0.06 0.05 0.04 0.04 0.05 0.05 0.06
0.03 0.03 0.04 0.05 0.04 0.04 0.04 0.05 0.05 0.06 0.06 0.04 0.03 0.03 0.03 0.04 0.05 0.04 0.03 0.03 0.03 0.03 0.04 0.04 0.05 0.05 0.06 0.05 0.05 0.05 0.05 0.05 0.05 0.04 0.03 0.03 0.03 0.02 0.02 0.04 0.04 0.04 0.04
0.02 0.02 0.02 0.04 0.03 0.03 0.04 0.04 0.05 0.06 0.05 0.04 0.03 0.03 0.04 0.03 0.03 0.03 0.03 0.03 0.02 0.02 0.03 0.03 0.04 0.05 0.06 0.06 0.06 0.05 0.05 0.06 0.05 0.04 0.03 0.03 0.03 0.02 0.02 0.03 0.03 0.04 0.05
0.01 0.02 0.02 0.02 0.03 0.05 0.05 0.05 0.07 0.08 0.05 0.05 0.03 0.02 0.03 0.03 0.02 0.03 0.04 0.04 0.03 0.02 0.02 0.02 0.02 0.03 0.04 0.05 0.05 0.04 0.04 0.04 0.04 0.04 0.03 0.02 0.02 0.01 0.01 0.01 0.02 0.02 0.04
0.01 0.02 0.02 0.02 0.03 0.05 0.06 0.08 0.10 0.09 0.07 0.05 0.04 0.03 0.03 0.03 0.02 0.03 0.03 0.03 0.04 0.03 0.02 0.01 0.02 0.02 0.03 0.06 0.06 0.06 0.05 0.04 0.03 0.03 0.03 0.02 0.02 0.01 0.01 0.01 0.02 0.02 0.04
0.01 0.02 0.04 0.02 0.03 0.04 0.07 0.10 0.13 0.11 0.11 0.07 0.05 0.05 0.04 0.04 0.03 0.04 0.04 0.03 0.03 0.02 0.02 0.02 0.02 0.02 0.03 0.05 0.07 0.09 0.07 0.05 0.04 0.04 0.03 0.03 0.02 0.02 0.02 0.02 0.02 0.02 0.04
0.01 0.02 0.04 0.03 0.03 0.03 0.05 0.07 0.08 0.08 0.09 0.09 0.07 0.06 0.05 0.04 0.05 0.05 0.06 0.05 0.02 0.03 0.03 0.02 0.02 0.02 0.02 0.03 0.04 0.08 0.10 0.07 0.05 0.04 0.04 0.03 0.02 0.02 0.03 0.02 0.03 0.03 0.03
0.01 0.01 0.01 0.03 0.03 0.03 0.03 0.04 0.05 0.07 0.06 0.07 0.08 0.06 0.05 0.04 0.04 0.03 0.05 0.04 0.04 0.04 0.04 0.03 0.04 0.04 0.04 0.03 0.02 0.03 0.07 0.09 0.07 0.05 0.04 0.03 0.02 0.02 0.02 0.02 0.02 0.03 0.04
0.01 0.01 0.01 0.02 0.02 0.02 0.02 0.03 0.04 0.06 0.06 0.07 0.08 0.06 0.04 0.03 0.02 0.03 0.04 0.06 0.06 0.04 0.02 0.04 0.07 0.08 0.09 0.06 0.03 0.02 0.03 0.04 0.07 0.06 0.05 0.04 0.03 0.02 0.02 0.02 0.02 0.02 0.03
0.02 0.01 0.01 0.02 0.01 0.01 0.01 0.02 0.03 0.04 0.04 0.04 0.05 0.03 0.03 0.03 0.02 0.01 0.02 0.03 0.04 0.03 0.03 0.04 0.08 0.13 0.14 0.10 0.04 0.03 0.02 0.02 0.03 0.05 0.06 0.06 0.04 0.03 0.03 0.02 0.02 0.02 0.02
0.02 0.02 0.02 0.02 0.02 0.01 0.00 0.00 0.01 0.02 0.03 0.04 0.03 0.02 0.02 0.02 0.02 0.02 0.01 0.01 0.02 0.02 0.03 0.04 0.06 0.13 0.19 0.12 0.06 0.04 0.03 0.02 0.01 0.03 0.05 0.06 0.06 0.04 0.03 0.03 0.03 0.03 0.02
0.03 0.02 0.01 0.01 0.01 0.01 0.00 0.00 0.01 0.01 0.02 0.02 0.03 0.02 0.02 0.02 0.02 0.03 0.02 0.01 0.01 0.01 0.01 0.02 0.05 0.11 0.17 0.13 0.10 0.06 0.03 0.02 0.01 0.01 0.02 0.04 0.05 0.06 0.05 0.04 0.04 0.03 0.03
0.02 0.01 0.01 0.01 0.01 0.01 0.01 0.01 0.01 0.01 0.01 0.01 0.02 0.02 0.02 0.02 0.03 0.03 0.02 0.01 0.02 0.01 0.01 0.02 0.03 0.07 0.14 0.15 0.17 0.09 0.04 0.02 0.02 0.01 0.02 0.04 0.05 0.07 0.06 0.06 0.05 0.03 0.03
0.02 0.03 0.02 0.03 0.03 0.03 0.02 0.02 0.01 0.02 0.01 0.02 0.02 0.02 0.01 0.01 0.02 0.03 0.03 0.03 0.02 0.01 0.01 0.02 0.03 0.05 0.04 0.06 0.10 0.08 0.04 0.03 0.04 0.04 0.05 0.06 0.07 0.09 0.10 0.07 0.05 0.05 0.05
0.03 0.04 0.04 0.03 0.02 0.03 0.02 0.02 0.02 0.02 0.02 0.03 0.03 0.02 0.01 0.01 0.02 0.03 0.04 0.04 0.05 0.03 0.01 0.01 0.02 0.02 0.02 0.04 0.06 0.06 0.05 0.04 0.05 0.06 0.07 0.07 0.05 0.04 0.06 0.08 0.08 0.06 0.06
0.03 0.04 0.04 0.04 0.04 0.03 0.03 0.03 0.02 0.02 0.03 0.03 0.03 0.03 0.03 0.02 0.02 0.03 0.05 0.06 0.07 0.05 0.02 0.01 0.01 0.01 0.02 0.02 0.03 0.05 0.04 0.04 0.05 0.06 0.06 0.05 0.07 0.06 0.03 0.04 0.10 0.11 0.08
0.03 0.03 0.03 0.04 0.04 0.05 0.05 0.06 0.06 0.04 0.02 0.02 0.03 0.03 0.03 0.02 0.03 0.02 0.04 0.04 0.05 0.05 0.03 0.02 0.01 0.01 0.01 0.01 0.01 0.01 0.02 0.02 0.03 0.04 0.04 0.04 0.04 0.05 0.05 0.04 0.08 0.13 0.12
0.03 0.03 0.02 0.02 0.03 0.04 0.04 0.05 0.05 0.04 0.02 0.01 0.01 0.02 0.02 0.02 0.02 0.03 0.02 0.02 0.02 0.03 0.03 0.02 0.01 0.01 0.01 0.01 0.01 0.01 0.01 0.01 0.01 0.01 0.02 0.03 0.04 0.04 0.05 0.05 0.07 0.09 0.09
0.03 0.02 0.01 0.01 0.02 0.04 0.05 0.05 0.05 0.04 0.03 0.02 0.01 0.01 0.02 0.03 0.03 0.02 0.01 0.01 0.01 0.01 0.01 0.01 0.01 0.01 0.01 0.01 0.01 0.01 0.02 0.01 0.01 0.01 0.01 0.01 0.01 0.02 0.03 0.04 0.05 0.05 0.05
0.01 0.01 0.01 0.01 0.02 0.05 0.06 0.06 0.07 0.06 0.06 0.04 0.02 0.02 0.02 0.02 0.03 0.03 0.02 0.01 0.01 0.00 0.00 0.00 0.00 0.00 0.00 0.00 0.01 0.01 0.01 0.01 0.01 0.01 0.01 0.01 0.01 0.01 0.02 0.02 0.04 0.04 0.05
0.01 0.01 0.01 0.01 0.02 0.04 0.05 0.06 0.05 0.05 0.05 0.04 0.03 0.03 0.03 0.03 0.04 0.04 0.03 0.02 0.02 0.01 0.01 0.01 0.00 0.00 0.00 0.01 0.00 0.01 0.01 0.01 0.01 0.02 0.01 0.01 0.01 0.02 0.02 0.02 0.02 0.03 0.04
0.01 0.02 0.02 0.02 0.03 0.03 0.05 0.08 0.08 0.05 0.04 0.04 0.03 0.03 0.03 0.03 0.04 0.03 0.04 0.03 0.02 0.02 0.01 0.02 0.01 0.01 0.00 0.00 0.01 0.01 0.01 0.01 0.01 0.01 0.02 0.02 0.02 0.03 0.03 0.02 0.02 0.03 0.04
0.04 0.03 0.04 0.04 0.04 0.03 0.05 0.07 0.08 0.09 0.07 0.05 0.04 0.03 0.03 0.02 0.03 0.03 0.04 0.04 0.03 0.03 0.03 0.02 0.02 0.01 0.01 0.01 0.02 0.02 0.02 0.02 0.02 0.01 0.01 0.01 0.02 0.02 0.02 0.02 0.03 0.03 0.03
0.05 0.05 0.07 0.08 0.06 0.04 0.05 0.05 0.05 0.06 0.07 0.06 0.06 0.06 0.05 0.04 0.05 0.05 0.05 0.04 0.03 0.04 0.04 0.03 0.01 0.01 0.01 0.02 0.03 0.03 0.03 0.03 0.02 0.01 0.01 0.01 0.01 0.01 0.01 0.01 0.02 0.04 0.04
0.03 0.03 0.03 0.03 0.03 0.04 0.06 0.06 0.06 0.06 0.05 0.05 0.05 0.04 0.04 0.04 0.04 0.05 0.04 0.03 0.02 0.02 0.03 0.03 0.02 0.03 0.03 0.03 0.04 0.04 0.03 0.03 0.02 0.02 0.03 0.03 0.01 0.02 0.01 0.00 0.02 0.04 0.04
0.01 0.01 0.02 0.02 0.02 0.02 0.04 0.05 0.06 0.05 0.05 0.04 0.04 0.04 0.04 0.04 0.04 0.04 0.04 0.03 0.02 0.02 0.03 0.03 0.03 0.03 0.03 0.03 0.03 0.03 0.02 0.03 0.02 0.01 0.02 0.03 0.02 0.03 0.02 0.00 0.01 0.02 0.04
MSLP
1012.67 1012.54 1012.39 1012.23 1012.11 1012.07 1012.09 1012.20 1012.38 1012.59 1012.84 1013.07 1013.29 1013.48 1013.63 1013.75 1013.84 1013.92 1013.99 1014.06 1014.13 1014.21 1014.30 1014.41 1014.51 1014.63 1014.76 1014.89 1015.04 1015.22 1015.42 1015.65 1015.91 1016.20 1016.49 1016.77 1017.03 1017.26 1017.45 1017.59 1017.70 1017.80 1017.91
1012.93 1012.82 1012.67 1012.52 1012.40 1012.34 1012.34 1012.43 1012.59 1012.81 1013.07 1013.34 1013.59 1013.80 1013.97 1014.09 1014.17 1014.21 1014.23 1014.25 1014.29 1014.35 1014.44 1014.57 1014.72 1014.88 1015.06 1015.23 1015.42 1015.60 1015.79 1016.00 1016.22 1016.46 1016.70 1016.94 1017.16 1017.36 1017.53 1017.66 1017.78 1017.90 1018.03
1013.14 1013.08 1012.98 1012.88 1012.78 1012.72 1012.71 1012.78 1012.91 1013.11 1013.35 1013.61 1013.87 1014.09 1014.27 1014.38 1014.43 1014.43 1014.41 1014.39 1014.40 1014.44 1014.54 1014.69 1014.89 1015.10 1015.34 1015.56 1015.76 1015.95 1016.11 1016.28 1016.44 1016.61 1016.79 1016.97 1017.16 1017.33 1017.49 1017.64 1017.78 1017.91 1018.07
1013.32 1013.33 1013.31 1013.28 1013.24 1013.22 1013.22 1013.27 1013.37 1013.53 1013.74 1013.97 1014.21 1014.41 1014.58 1014.67 1014.70 1014.67 1014.61 1014.55 1014.53 1014.55 1014.65 1014.82 1015.04 1015.30 1015.57 1015.82 1016.04 1016.21 1016.35 1016.46 1016.55 1016.65 1016.76 1016.89 1017.03 1017.18 1017.34 1017.49 1017.65 1017.81 1017.98
1013.47 1013.55 1013.63 1013.70 1013.75 1013.78 1013.82 1013.86 1013.94 1014.05 1014.21 1014.41 1014.61 1014.79 1014.93 1015.01 1015.02 1014.97 1014.88 1014.78 1014.72 1014.72 1014.80 1014.96 1015.18 1015.46 1015.73 1015.99 1016.20 1016.35 1016.45 1016.51 1016.55 1016.59 1016.64 1016.71 1016.81 1016.94 1017.09 1017.24 1017.41 1017.58 1017.75
1013.59 1013.73 1013.91 1014.08 1014.22 1014.33 1014.40 1014.46 1014.51 1014.59 1014.71 1014.85 1015.02 1015.18 1015.31 1015.38 1015.38 1015.31 1015.20 1015.07 1014.97 1014.92 1014.96 1015.09 1015.28 1015.53 1015.79 1016.03 1016.22 1016.34 1016.41 1016.43 1016.43 1016.42 1016.43 1016.47 1016.55 1016.65 1016.78 1016.93 1017.09 1017.25 1017.41
1013.69 1013.87 1014.11 1014.36 1014.58 1014.75 1014.87 1014.93 1014.98 1015.03 1015.10 1015.22 1015.36 1015.51 1015.64 1015.72 1015.72 1015.65 1015.52 1015.37 1015.22 1015.13 1015.10 1015.17 1015.30 1015.50 1015.71 1015.91 1016.07 1016.18 1016.23 1016.23 1016.21 1016.19 1016.19 1016.22 1016.27 1016.36 1016.47 1016.60 1016.73 1016.86 1016.99
1013.80 1013.97 1014.23 1014.52 1014.79 1015.00 1015.14 1015.21 1015.24 1015.27 1015.32 1015.42 1015.55 1015.70 1015.85 1015.95 1015.97 1015.92 1015.79 1015.62 1015.43 1015.28 1015.19 1015.17 1015.23 1015.34 1015.49 1015.65 1015.77 1015.86 1015.91 1015.93 1015.93 1015.93 1015.94 1015.97 1016.03 1016.10 1016.20 1016.29 1016.39 1016.48 1016.58
1013.93 1014.06 1014.29 1014.58 1014.84 1015.05 1015.19 1015.26 1015.27 1015.28 1015.32 1015.41 1015.54 1015.72 1015.89 1016.02 1016.09 1016.06 1015.95 1015.77 1015.55 1015.35 1015.18 1015.08 1015.04 1015.08 1015.15 1015.25 1015.35 1015.44 1015.51 1015.56 1015.60 1015.65 1015.70 1015.76 1015.83 1015.90 1015.97 1016.04 1016.09 1016.16 1016.22
1014.08 1014.15 1014.33 1014.56 1014.79 1014.97 1015.08 1015.12 1015.12 1015.11 1015.14 1015.23 1015.38 1015.57 1015.77 1015.95 1016.05 1016.07 1015.97 1015.80 1015.57 1015.31 1015.08 1014.90 1014.78 1014.72 1014.73 1014.78 1014.86 1014.95 1015.04 1015.15 1015.24 1015.35 1015.46 1015.56 1015.66 1015.74 1015.80 1015.84 1015.88 1015.91 1015.96
1014.26 1014.26 1014.36 1014.53 1014.70 1014.83 1014.89 1014.90 1014.88 1014.85 1014.88 1014.96 1015.12 1015.33 1015.56 1015.77 1015.91 1015.96 1015.89 1015.72 1015.47 1015.19 1014.91 1014.66 1014.46 1014.34 1014.28 1014.28 1014.34 1014.43 1014.55 1014.70 1014.86 1015.03 1015.20 1015.36 1015.49 1015.59 1015.66 1015.70 1015.72 1015.73 1015.77
1014.44 1014.39 1014.43 1014.53 1014.64 1014.71 1014.73 1014.71 1014.66 1014.62 1014.64 1014.72 1014.87 1015.09 1015.34 1015.56 1015.72 1015.78 1015.73 1015.57 1015.32 1015.01 1014.69 1014.39 1014.13 1013.94 1013.83 1013.78 1013.81 1013.90 1014.03 1014.22 1014.43 1014.66 1014.89 1015.10 1015.28 1015.41 1015.49 1015.54 1015.57 1015.59 1015.64
1014.59 1014.51 1014.52 1014.57 1014.64 1014.67 1014.66 1014.62 1014.55 1014.50 1014.50 1014.57 1014.71 1014.91 1015.14 1015.36 1015.51 1015.58 1015.53 1015.37 1015.11 1014.80 1014.45 1014.11 1013.81 1013.57 1013.40 1013.31 1013.30 1013.36 1013.50 1013.70 1013.94 1014.21 1014.48 1014.74 1014.96 1015.13 1015.26 1015.33 1015.39 1015.44 1015.52
1014.65 1014.59 1014.59 1014.64 1014.68 1014.70 1014.68 1014.63 1014.56 1014.50 1014.48 1014.53 1014.65 1014.81 1015.01 1015.18 1015.31 1015.35 1015.30 1015.14 1014.88 1014.56 1014.20 1013.84 1013.51 1013.22 1013.00 1012.86 1012.80 1012.83 1012.94 1013.13 1013.38 1013.66 1013.97 1014.26 1014.52 1014.73 1014.90 1015.02 1015.11 1015.21 1015.32
1014.59 1014.57 1014.60 1014.66 1014.71 1014.74 1014.73 1014.69 1014.62 1014.57 1014.53 1014.55 1014.62 1014.74 1014.88 1015.01 1015.09 1015.11 1015.03 1014.86 1014.61 1014.29 1013.94 1013.57 1013.21 1012.88 1012.61 1012.42 1012.31 1012.29 1012.35 1012.51 1012.73 1013.02 1013.32 1013.63 1013.92 1014.18 1014.39 1014.56 1014.71 1014.86 1015.02
1014.39 1014.41 1014.48 1014.57 1014.65 1014.71 1014.72 1014.70 1014.64 1014.58 1014.54 1014.53 1014.56 1014.62 1014.70 1014.77 1014.81 1014.79 1014.70 1014.53 1014.29 1013.99 1013.64 1013.27 1012.90 1012.55 1012.24 1011.99 1011.82 1011.73 1011.74 1011.84 1012.03 1012.28 1012.58 1012.89 1013.19 1013.48 1013.73 1013.95 1014.15 1014.36 1014.57
1014.02 1014.08 1014.18 1014.30 1014.41 1014.49 1014.53 1014.53 1014.49 1014.43 1014.38 1014.34 1014.33 1014.34 1014.37 1014.39 1014.40 1014.36 1014.27 1014.11 1013.90 1013.62 1013.30 1012.95 1012.58 1012.21 1011.87 1011.57 1011.33 1011.18 1011.12 1011.15 1011.28 1011.49 1011.75 1012.05 1012.35 1012.65 1012.93 1013.18 1013.43 1013.69 1013.96
1013.52 1013.60 1013.72 1013.85 1013.98 1014.08 1014.13 1014.14 1014.10 1014.04 1013.97 1013.91 1013.87 1013.85 1013.84 1013.84 1013.84 1013.80 1013.73 1013.61 1013.44 1013.21 1012.92 1012.59 1012.24 1011.86 1011.49 1011.15 1010.86 1010.64 1010.51 1010.47 1010.54 1010.69 1010.90 1011.16 1011.44 1011.73 1012.02 1012.29 1012.57 1012.86 1013.17
1012.96 1013.03 1013.14 1013.26 1013.39 1013.48 1013.53 1013.53 1013.49 1013.42 1013.34 1013.25 1013.19 1013.15 1013.14 1013.14 1013.15 1013.14 1013.11 1013.04 1012.93 1012.75 1012.52 1012.22 1011.89 1011.51 1011.13 1010.75 1010.41 1010.14 1009.94 1009.84 1009.83 1009.91 1010.06 1010.26 1010.50 1010.75 1011.02 1011.29 1011.58 1011.89 1012.24
1012.42 1012.46 1012.54 1012.64 1012.74 1012.81 1012.84 1012.82 1012.75 1012.65 1012.54 1012.44 1012.36 1012.32 1012.31 1012.34 1012.38 1012.42 1012.45 1012.45 1012.40 1012.29 1012.11 1011.85 1011.54 1011.17 1010.78 1010.38 1010.00 1009.67 1009.42 1009.25 1009.16 1009.17 1009.24 1009.37 1009.54 1009.73 1009.96 1010.20 1010.47 1010.79 1011.16
1012.00 1012.00 1012.05 1012.12 1012.19 1012.22 1012.21 1012.14 1012.03 1011.89 1011.75 1011.62 1011.53 1011.48 1011.49 1011.54 1011.63 1011.73 1011.83 1011.89 1011.90 1011.85 1011.72 1011.50 1011.21 1010.85 1010.45 1010.03 1009.62 1009.26 1008.95 1008.71 1008.55 1008.47 1008.46 1008.50 1008.58 1008.70 1008.85 1009.04 1009.29 1009.60 1009.98
1011.80 1011.78 1011.81 1011.85 1011.88 1011.87 1011.80 1011.68 1011.51 1011.32 1011.12 1010.96 1010.84 1010.79 1010.81 1010.89 1011.01 1011.15 1011.30 1011.41 1011.47 1011.46 1011.36 1011.17 1010.89 1010.53 1010.13 1009.70 1009.27 1008.87 1008.51 1008.21 1007.98 1007.81 1007.70 1007.64 1007.62 1007.65 1007.71 1007.84 1008.04 1008.34 1008.72
1011.90 1011.88 1011.91 1011.93 1011.93 1011.88 1011.76 1011.57 1011.34 1011.08 1010.83 1010.61 1010.46 1010.38 1010.39 1010.46 1010.59 1010.76 1010.92 1011.06 1011.14 1011.14 1011.05 1010.87 1010.59 1010.23 1009.82 1009.38 1008.93 1008.50 1008.10 1007.74 1007.44 1007.18 1006.97 1006.80 1006.67 1006.59 1006.56 1006.62 1006.77 1007.03 1007.42
1012.33 1012.35 1012.40 1012.43 1012.42 1012.33 1012.16 1011.91 1011.60 1011.27 1010.95 1010.67 1010.46 1010.33 1010.30 1010.35 1010.46 1010.60 1010.75 1010.87 1010.93 1010.92 1010.81 1010.61 1010.32 1009.95 1009.53 1009.08 1008.61 1008.15 1007.71 1007.30 1006.92 1006.58 1006.27 1005.98 1005.74 1005.55 1005.43 1005.40 1005.50 1005.73 1006.12
1013.10 1013.18 1013.28 1013.33 1013.31 1013.19 1012.97 1012.67 1012.29 1011.89 1011.49 1011.14 1010.86 1010.67 1010.58 1010.56 1010.61 1010.70 1010.79 1010.86 1010.86 1010.80 1010.65 1010.41 1010.09 1009.71 1009.27 1008.80 1008.32 1007.84 1007.36 1006.91 1006.46 1006.03 1005.61 1005.22 1004.86 1004.56 1004.34 1004.23 1004.27 1004.47 1004.84
1014.15 1014.30 1014.44 1014.52 1014.50 1014.36 1014.11 1013.75 1013.32 1012.84 1012.38 1011.96 1011.60 1011.34 1011.17 1011.08 1011.04 1011.04 1011.05 1011.03 1010.95 1010.81 1010.60 1010.31 1009.95 1009.54 1009.09 1008.61 1008.11 1007.61 1007.10 1006.59 1006.07 1005.55 1005.04 1004.54 1004.07 1003.66 1003.34 1003.15 1003.12 1003.27 1003.61
Thickness
5776 5776 5775 5775 5774 5773 5772 5771 5770 5770 5769 5768 5767 5766 5764 5762 5760 5758 5757 5755 5754 5753 5751 5749 5747 5745 5743 5741 5740 5738 5737 5735 5734 5732 5731 5730 5729 5728 5727 5726 5725 5724 5723
5778 5777 5776 5775 5775 5774 5773 5772 5771 5770 5769 5768 5767 5765 5764 5762 5760 5758 5757 5755 5753 5752 5750 5748 5746 5744 5743 5740 5739 5738 5736 5735 5733 5731 5730 5729 5728 5727 5726 5725 5724 5723 5722
5779 5778 5777 5776 5776 5775 5774 5773 5772 5770 5769 5768 5767 5766 5764 5762 5760 5758 5757 5755 5753 5752 5750 5748 5746 5744 5742 5740 5738 5737 5735 5734 5732 5731 5729 5728 5727 5726 5725 5724 5723 5722 5721
5781 5779 5778 5777 5777 5776 5775 5773 5771 5769 5768 5767 5766 5765 5764 5762 5760 5758 5756 5755 5753 5752 5750 5747 5745 5743 5741 5739 5738 5736 5735 5733 5731 5729 5728 5727 5726 5725 5724 5723 5722 5721 5721
5782 5781 5780 5779 5778 5776 5775 5774 5771 5769 5766 5765 5765 5764 5764 5762 5760 5758 5756 5755 5753 5751 5749 5747 5745 5743 5741 5739 5738 5736 5735 5733 5731 5729 5727 5726 5725 5724 5723 5722 5721 5721 5720
5784 5783 5781 5780 5779 5776 5774 5773 5771 5769 5767 5765 5765 5763 5762 5762 5761 5758 5756 5755 5753 5751 5749 5747 5745 5742 5741 5739 5737 5736 5735 5733 5731 5729 5727 5726 5724 5723 5722 5721 5721 5720 5719
5785 5784 5782 5781 5779 5777 5775 5773 5771 5768 5766 5765 5760 5757 5758 5761 5759 5759 5757 5755 5753 5751 5749 5747 5745 5742 5740 5739 5737 5736 5734 5733 5731 5729 5727 5725 5724 5722 5721 5720 5719 5719 5718
5786 5785 5783 5781 5779 5777 5775 5773 5771 5767 5765 5765 5759 5752 5747 5749 5755 5758 5756 5754 5752 5751 5749 5746 5743 5741 5739 5738 5737 5736 5734 5732 5730 5728 5727 5725 5723 5722 5720 5719 5718 5717 5717
5787 5786 5784 5782 5780 5778 5774 5773 5771 5767 5763 5763 5762 5755 5745 5740 5745 5752 5754 5753 5752 5750 5748 5747 5744 5741 5739 5737 5736 5735 5733 5731 5730 5728 5726 5724 5722 5721 5720 5718 5717 5716 5716
5787 5786 5784 5783 5780 5778 5775 5774 5772 5769 5765 5761 5761 5761 5757 5753 5744 5741 5746 5750 5751 5749 5748 5747 5745 5742 5739 5737 5735 5734 5733 5730 5728 5727 5725 5723 5721 5720 5719 5717 5716 5715 5715
5787 5786 5784 5783 5780 5778 5776 5774 5772 5770 5767 5763 5760 5759 5757 5754 5750 5742 5738 5742 5745 5747 5747 5746 5744 5742 5740 5737 5735 5733 5732 5730 5727 5726 5724 5722 5721 5719 5718 5716 5715 5714 5713
5785 5785 5784 5782 5781 5779 5776 5774 5772 5770 5768 5765 5763 5760 5757 5752 5748 5744 5739 5738 5739 5743 5745 5745 5744 5742 5740 5737 5735 5733 5731 5729 5727 5724 5723 5721 5719 5718 5716 5715 5713 5712 5711
5783 5784 5784 5782 5780 5779 5777 5775 5772 5770 5768 5765 5763 5761 5759 5756 5754 5748 5742 5738 5737 5740 5742 5743 5743 5741 5739 5737 5734 5732 5729 5727 5725 5723 5721 5719 5717 5716 5714 5712 5711 5710 5709
5785 5785 5784 5782 5781 5779 5777 5774 5772 5769 5768 5766 5764 5762 5759 5757 5755 5751 5746 5740 5734 5734 5736 5738 5741 5741 5739 5737 5734 5731 5728 5726 5724 5721 5719 5717 5715 5713 5712 5710 5708 5707 5706
5786 5784 5783 5781 5780 5778 5776 5773 5770 5768 5767 5764 5762 5761 5759 5757 5755 5753 5750 5745 5736 5728 5728 5734 5736 5739 5738 5736 5733 5730 5728 5725 5723 5720 5718 5716 5713 5711 5708 5707 5705 5704 5703
5786 5784 5782 5780 5778 5777 5774 5772 5769 5767 5765 5763 5761 5759 5756 5755 5753 5751 5748 5745 5741 5734 5728 5732 5734 5736 5735 5733 5731 5728 5726 5724 5721 5719 5717 5715 5712 5709 5706 5704 5703 5702 5700
5784 5782 5781 5778 5776 5774 5772 5770 5767 5765 5762 5760 5759 5757 5754 5752 5749 5748 5746 5743 5740 5735 5729 5730 5732 5733 5731 5729 5728 5725 5723 5720 5719 5717 5715 5712 5709 5707 5705 5703 5701 5699 5698
5782 5781 5779 5777 5775 5773 5771 5768 5765 5763 5760 5758 5756 5754 5752 5750 5747 5744 5742 5739 5737 5735 5730 5726 5727 5727 5726 5726 5724 5721 5719 5717 5716 5715 5712 5710 5707 5705 5702 5700 5698 5696 5694
5780 5778 5776 5774 5772 5770 5768 5766 5764 5761 5758 5756 5754 5751 5749 5747 5743 5741 5739 5736 5734 5733 5729 5725 5723 5723 5722 5721 5718 5716 5715 5713 5712 5711 5709 5707 5704 5701 5699 5697 5694 5692 5690
5778 5776 5774 5772 5769 5767 5765 5763 5760 5758 5756 5754 5752 5750 5748 5745 5742 5739 5737 5733 5731 5727 5724 5721 5718 5716 5715 5715 5712 5709 5707 5707 5707 5707 5706 5703 5700 5697 5695 5693 5690 5688 5685
5777 5774 5771 5768 5766 5764 5762 5759 5757 5755 5753 5751 5750 5748 5746 5744 5742 5739 5736 5731 5728 5723 5719 5715 5712 5710 5708 5706 5704 5704 5701 5701 5701 5701 5699 5697 5695 5692 5690 5688 5686 5684 5682
5773 5770 5766 5764 5761 5761 5759 5757 5754 5751 5749 5747 5745 5744 5743 5741 5739 5737 5734 5731 5727 5721 5715 5711 5707 5704 5704 5703 5701 5699 5695 5692 5690 5695 5691 5690 5689 5687 5686 5684 5683 5681 5679
5768 5765 5761 5759 5757 5756 5755 5753 5751 5748 5745 5744 5742 5739 5739 5738 5735 5732 5730 5727 5723 5720 5716 5711 5705 5703 5701 5700 5696 5693 5689 5687 5686 5688 5685 5683 5683 5681 5682 5680 5679 5677 5675
5763 5761 5758 5755 5753 5752 5751 5749 5747 5744 5741 5740 5738 5736 5733 5732 5730 5726 5723 5719 5717 5715 5712 5709 5706 5704 5702 5699 5694 5690 5687 5684 5683 5682 5679 5674 5676 5675 5677 5675 5673 5671 5669
5759 5757 5754 5751 5749 5747 5747 5744 5742 5739 5736 5734 5733 5731 5728 5726 5725 5721 5716 5712 5711 5710 5709 5707 5704 5701 5698 5695 5690 5684 5679 5674 5672 5673 5672 5667 5668 5666 5666 5666 5666 5664 5662
5755 5752 5749 5747 5744 5742 5741 5739 5736 5732 5729 5727 5726 5725 5724 5722 5719 5715 5710 5706 5703 5703 5701 5699 5696 5694 5691 5689 5685 5680 5675 5668 5664 5663 5666 5661 5659 5656 5655 5658 5657 5656 5654